| time (UTC) | temp C | wind direction | speed KPH | gust KPH | rain 1hr cm | rain 24hr cm | rain mn cm | humidity % | barometer mb |
| 20260510124005 | 16 | 17 | 8.0 | 16.1 | 0.00 | 0.00 | 0.00 | 56 | 1014.2 |
| 20260510123505 | 15 | 45 | 9.7 | 22.5 | 0.00 | 0.00 | 0.00 | 58 | 1014.2 |
| 20260510123006 | 16 | 17 | 11.3 | 25.7 | 0.00 | 0.00 | 0.00 | 58 | 1014.2 |
| 20260510122505 | 16 | 22 | 8.0 | 16.1 | 0.00 | 0.00 | 0.00 | 57 | 1014.3 |
| 20260510120004 | 15 | 29 | 9.7 | 19.3 | 0.00 | 0.00 | 0.00 | 57 | 1014.5 |
| 20260510112005 | 15 | 27 | 6.4 | 19.3 | 0.00 | 0.00 | 0.00 | 58 | 1014.8 |
| 20260510111504 | 15 | 24 | 9.7 | 20.9 | 0.00 | 0.00 | 0.00 | 59 | 1014.9 |
| 20260510111004 | 15 | 6 | 11.3 | 24.1 | 0.00 | 0.00 | 0.00 | 61 | 1015.0 |
| 20260510110005 | 15 | 2 | 12.9 | 20.9 | 0.00 | 0.00 | 0.00 | 60 | 1015.1 |
| 20260510105504 | 15 | 15 | 9.7 | 20.9 | 0.00 | 0.00 | 0.00 | 60 | 1015.2 |
| 20260510105007 | 15 | 31 | 9.7 | 19.3 | 0.00 | 0.00 | 0.00 | 60 | 1015.2 |
| 20260510104506 | 15 | 359 | 9.7 | 19.3 | 0.00 | 0.00 | 0.00 | 64 | 1015.3 |
| 20260510104005 | 15 | 357 | 12.9 | 24.1 | 0.00 | 0.00 | 0.00 | 67 | 1015.3 |
| 20260510103005 | 15 | 10 | 9.7 | 19.3 | 0.00 | 0.00 | 0.00 | 62 | 1015.3 |
| 20260510102504 | 15 | 3 | 9.7 | 16.1 | 0.00 | 0.00 | 0.00 | 68 | 1015.3 |
| 20260510102004 | 15 | 6 | 11.3 | 22.5 | 0.00 | 0.00 | 0.00 | 68 | 1015.4 |
| 20260510095004 | 14 | 9 | 11.3 | 19.3 | 0.00 | 0.00 | 0.00 | 69 | 1015.6 |
| 20260510094504 | 14 | 358 | 9.7 | 19.3 | 0.00 | 0.00 | 0.00 | 70 | 1015.7 |
| 20260510092004 | 13 | 0 | 8.0 | 25.7 | 0.00 | 0.00 | 0.00 | 72 | 1015.8 |
| 20260510091004 | 14 | 350 | 12.9 | 20.9 | 0.00 | 0.00 | 0.00 | 70 | 1015.8 |
| 20260510085504 | 13 | 3 | 9.7 | 22.5 | 0.00 | 0.00 | 0.00 | 72 | 1015.8 |
| 20260510085005 | 14 | 6 | 11.3 | 19.3 | 0.00 | 0.00 | 0.00 | 72 | 1015.8 |
| 20260510083508 | 14 | 358 | 9.7 | 20.9 | 0.00 | 0.00 | 0.00 | 69 | 1016.0 |
| 20260510083008 | 13 | 318 | 8.0 | 16.1 | 0.00 | 0.00 | 0.00 | 67 | 1016.1 |
| 20260510082508 | 13 | 5 | 11.3 | 20.9 | 0.00 | 0.00 | 0.00 | 66 | 1016.1 |
| 20260510081009 | 13 | 347 | 6.4 | 19.3 | 0.00 | 0.00 | 0.00 | 67 | 1016.2 |
| 20260510073508 | 13 | 73 | 4.8 | 16.1 | 0.00 | 0.00 | 0.00 | 66 | 1016.3 |
| 20260510073008 | 13 | 6 | 6.4 | 16.1 | 0.00 | 0.00 | 0.00 | 66 | 1016.3 |
| 20260510071507 | 13 | 343 | 8.0 | 16.1 | 0.00 | 0.00 | 0.00 | 69 | 1016.3 |
| 20260510071008 | 12 | 36 | 8.0 | 16.1 | 0.00 | 0.00 | 0.00 | 71 | 1016.3 |
| 20260510070008 | 12 | 353 | 8.0 | 19.3 | 0.00 | 0.00 | 0.00 | 73 | 1016.2 |
| 20260510065508 | 12 | 5 | 6.4 | 19.3 | 0.00 | 0.00 | 0.00 | 74 | 1016.2 |
| 20260510063008 | 12 | 0 | 9.7 | 19.3 | 0.00 | 0.00 | 0.00 | 76 | 1016.3 |
| 20260510062507 | 11 | 355 | 8.0 | 19.3 | 0.00 | 0.00 | 0.00 | 76 | 1016.3 |
| 20260510062008 | 11 | 11 | 9.7 | 19.3 | 0.00 | 0.00 | 0.00 | 77 | 1016.3 |
| 20260510061509 | 11 | 17 | 8.0 | 16.1 | 0.00 | 0.00 | 0.00 | 78 | 1016.3 |
| 20260510061008 | 11 | 3 | 6.4 | 19.3 | 0.00 | 0.00 | 0.00 | 77 | 1016.3 |
| 20260510054008 | 10 | 4 | 4.8 | 12.9 | 0.00 | 0.00 | 0.00 | 79 | 1016.3 |
| 20260510053507 | 10 | 4 | 4.8 | 11.3 | 0.00 | 0.00 | 0.00 | 79 | 1016.3 |
| 20260510053010 | 10 | 2 | 9.7 | 16.1 | 0.00 | 0.00 | 0.00 | 79 | 1016.3 |
| 20260510052508 | 10 | 0 | 6.4 | 12.9 | 0.00 | 0.00 | 0.00 | 80 | 1016.3 |
| 20260510052008 | 10 | 0 | 8.0 | 12.9 | 0.00 | 0.00 | 0.00 | 80 | 1016.3 |
| 20260510051507 | 10 | 355 | 9.7 | 14.5 | 0.00 | 0.00 | 0.00 | 79 | 1016.3 |
| 20260510051009 | 10 | 354 | 8.0 | 14.5 | 0.00 | 0.00 | 0.00 | 79 | 1016.3 |
| 20260510045008 | 10 | 3 | 4.8 | 12.9 | 0.00 | 0.00 | 0.00 | 79 | 1016.3 |
| 20260510044508 | 10 | 3 | 4.8 | 9.7 | 0.00 | 0.00 | 0.00 | 79 | 1016.3 |
| 20260510043008 | 10 | 3 | 4.8 | 11.3 | 0.00 | 0.00 | 0.00 | 79 | 1016.2 |
| 20260510042508 | 10 | 3 | 4.8 | 12.9 | 0.00 | 0.00 | 0.00 | 79 | 1016.2 |
| 20260510042008 | 10 | 9 | 8.0 | 14.5 | 0.00 | 0.00 | 0.00 | 79 | 1016.1 |
| 20260510035507 | 10 | 348 | 4.8 | 11.3 | 0.00 | 0.00 | 0.00 | 80 | 1016.1 |
| 20260510035008 | 10 | 355 | 8.0 | 16.1 | 0.00 | 0.00 | 0.00 | 80 | 1016.2 |
| 20260510034508 | 10 | 333 | 6.4 | 11.3 | 0.00 | 0.00 | 0.00 | 81 | 1016.3 |
| 20260510034007 | 10 | 0 | 6.4 | 12.9 | 0.00 | 0.00 | 0.00 | 81 | 1016.3 |
| 20260510033008 | 10 | 0 | 8.0 | 16.1 | 0.00 | 0.00 | 0.00 | 82 | 1016.2 |
| 20260510032507 | 10 | 355 | 8.0 | 16.1 | 0.00 | 0.00 | 0.00 | 83 | 1016.3 |
| 20260510032008 | 10 | 350 | 8.0 | 16.1 | 0.00 | 0.00 | 0.00 | 83 | 1016.3 |
| 20260510031508 | 10 | 14 | 6.4 | 12.9 | 0.00 | 0.00 | 0.00 | 83 | 1016.3 |
| 20260510025007 | 10 | 12 | 6.4 | 9.7 | 0.00 | 0.00 | 0.00 | 84 | 1016.5 |
| 20260510024507 | 10 | 17 | 8.0 | 11.3 | 0.00 | 0.00 | 0.00 | 84 | 1016.6 |
| 20260510024008 | 10 | 5 | 6.4 | 12.9 | 0.00 | 0.00 | 0.00 | 84 | 1016.6 |
| 20260510023507 | 10 | 350 | 8.0 | 11.3 | 0.00 | 0.00 | 0.00 | 84 | 1016.7 |
| 20260510023007 | 10 | 349 | 8.0 | 11.3 | 0.00 | 0.00 | 0.00 | 84 | 1016.6 |
| 20260510022507 | 10 | 346 | 8.0 | 12.9 | 0.00 | 0.00 | 0.00 | 84 | 1016.5 |
| 20260510022007 | 10 | 355 | 4.8 | 11.3 | 0.00 | 0.00 | 0.00 | 84 | 1016.4 |
| 20260510021507 | 10 | 355 | 8.0 | 9.7 | 0.00 | 0.00 | 0.00 | 83 | 1016.4 |
| 20260510021008 | 10 | 355 | 4.8 | 9.7 | 0.00 | 0.00 | 0.00 | 83 | 1016.4 |
| 20260510015007 | 10 | 355 | 8.0 | 12.9 | 0.00 | 0.00 | 0.00 | 82 | 1016.5 |
| 20260510014507 | 10 | 355 | 8.0 | 11.3 | 0.00 | 0.00 | 0.00 | 82 | 1016.6 |
| 20260510013507 | 10 | 11 | 4.8 | 8.0 | 0.00 | 0.00 | 0.00 | 81 | 1016.7 |
| 20260510013007 | 11 | 1 | 8.0 | 14.5 | 0.00 | 0.00 | 0.00 | 81 | 1016.6 |
| 20260510012507 | 11 | 3 | 9.7 | 14.5 | 0.00 | 0.00 | 0.00 | 81 | 1016.5 |
| 20260510005007 | 11 | 12 | 6.4 | 14.5 | 0.00 | 0.00 | 0.00 | 80 | 1016.8 |
| 20260510004507 | 11 | 358 | 4.8 | 9.7 | 0.00 | 0.00 | 0.00 | 80 | 1016.8 |
| 20260510004008 | 11 | 344 | 4.8 | 9.7 | 0.00 | 0.00 | 0.00 | 80 | 1016.8 |
| 20260510000007 | 11 | 3 | 8.0 | 12.9 | 0.00 | 0.00 | 0.00 | 80 | 1016.8 |
| 20260509235506 | 11 | 10 | 4.8 | 11.3 | 0.00 | 0.00 | 0.00 | 80 | 1016.9 |
| 20260509235007 | 11 | 11 | 0.0 | 4.8 | 0.00 | 0.00 | 0.00 | 80 | 1017.0 |
| 20260509234506 | 11 | 11 | 3.2 | 4.8 | 0.00 | 0.00 | 0.00 | 80 | 1017.0 |
| 20260509234007 | 11 | 11 | 3.2 | 8.0 | 0.00 | 0.00 | 0.00 | 80 | 1017.1 |
| 20260509233507 | 11 | 11 | 3.2 | 9.7 | 0.00 | 0.00 | 0.00 | 80 | 1017.0 |
| 20260509233006 | 11 | 11 | 4.8 | 11.3 | 0.00 | 0.00 | 0.00 | 80 | 1016.9 |
| 20260509232506 | 11 | 12 | 4.8 | 11.3 | 0.00 | 0.00 | 0.00 | 79 | 1016.9 |
| 20260509224506 | 11 | 12 | 4.8 | 9.7 | 0.00 | 0.00 | 0.00 | 79 | 1017.1 |
| 20260509224007 | 11 | 13 | 3.2 | 8.0 | 0.00 | 0.00 | 0.00 | 79 | 1017.1 |
| 20260509222506 | 11 | 11 | 3.2 | 11.3 | 0.00 | 0.00 | 0.00 | 79 | 1017.2 |
| 20260509210007 | 12 | 4 | 1.6 | 4.8 | 0.00 | 0.00 | 0.00 | 70 | 1017.3 |
| 20260509205506 | 12 | 3 | 3.2 | 8.0 | 0.00 | 0.00 | 0.00 | 71 | 1017.1 |
| 20260509204006 | 13 | 3 | 3.2 | 4.8 | 0.00 | 0.00 | 0.00 | 71 | 1017.0 |
| 20260509203506 | 13 | 9 | 3.2 | 4.8 | 0.00 | 0.00 | 0.00 | 71 | 1017.0 |
| 20260509203007 | 13 | 9 | 3.2 | 4.8 | 0.00 | 0.00 | 0.00 | 70 | 1016.9 |
| 20260509202506 | 13 | 9 | 0.0 | 4.8 | 0.00 | 0.00 | 0.00 | 70 | 1016.9 |
| 20260509202006 | 13 | 9 | 1.6 | 4.8 | 0.00 | 0.00 | 0.00 | 69 | 1017.0 |
| 20260509201506 | 13 | 9 | 0.0 | 3.2 | 0.00 | 0.00 | 0.00 | 68 | 1017.1 |
| 20260509194006 | 14 | 9 | 1.6 | 4.8 | 0.00 | 0.00 | 0.00 | 67 | 1016.9 |
| 20260509193506 | 14 | 9 | 3.2 | 8.0 | 0.00 | 0.00 | 0.00 | 66 | 1016.9 |
| 20260509193006 | 15 | 9 | 3.2 | 4.8 | 0.00 | 0.00 | 0.00 | 66 | 1016.8 |
| 20260509192506 | 15 | 9 | 3.2 | 8.0 | 0.00 | 0.00 | 0.00 | 65 | 1016.8 |
| 20260509192006 | 15 | 9 | 3.2 | 8.0 | 0.00 | 0.00 | 0.00 | 64 | 1016.8 |
| 20260509191506 | 15 | 9 | 3.2 | 4.8 | 0.00 | 0.00 | 0.00 | 63 | 1016.8 |
| 20260509191006 | 15 | 9 | 3.2 | 9.7 | 0.00 | 0.00 | 0.00 | 63 | 1016.8 |
| 20260509190006 | 15 | 12 | 6.4 | 9.7 | 0.00 | 0.00 | 0.00 | 61 | 1016.8 |
| 20260509185505 | 15 | 329 | 4.8 | 9.7 | 0.00 | 0.00 | 0.00 | 61 | 1016.7 |
| 20260509185009 | 16 | 0 | 4.8 | 11.3 | 0.00 | 0.00 | 0.00 | 61 | 1016.7 |
| 20260509184507 | 16 | 14 | 6.4 | 9.7 | 0.00 | 0.00 | 0.00 | 60 | 1016.6 |
| 20260509184006 | 16 | 327 | 4.8 | 12.9 | 0.00 | 0.00 | 0.00 | 59 | 1016.6 |
| 20260509183506 | 16 | 1 | 4.8 | 11.3 | 0.00 | 0.00 | 0.00 | 58 | 1016.6 |
| 20260509183006 | 16 | 325 | 6.4 | 11.3 | 0.00 | 0.00 | 0.00 | 58 | 1016.6 |
| 20260509182506 | 16 | 4 | 4.8 | 11.3 | 0.00 | 0.00 | 0.00 | 57 | 1016.5 |
| 20260509181006 | 16 | 337 | 4.8 | 16.1 | 0.00 | 0.00 | 0.00 | 56 | 1016.3 |
| 20260509180006 | 17 | 355 | 4.8 | 16.1 | 0.00 | 0.00 | 0.00 | 54 | 1016.3 |
| 20260509174505 | 17 | 347 | 8.0 | 12.9 | 0.00 | 0.00 | 0.00 | 52 | 1016.4 |
| 20260509174006 | 17 | 355 | 8.0 | 19.3 | 0.00 | 0.00 | 0.00 | 51 | 1016.5 |
| 20260509173506 | 17 | 357 | 9.7 | 16.1 | 0.00 | 0.00 | 0.00 | 50 | 1016.5 |
| 20260509173006 | 17 | 350 | 8.0 | 12.9 | 0.00 | 0.00 | 0.00 | 49 | 1016.6 |
| 20260509172506 | 18 | 357 | 8.0 | 12.9 | 0.00 | 0.00 | 0.00 | 48 | 1016.6 |
| 20260509172006 | 18 | 0 | 3.2 | 11.3 | 0.00 | 0.00 | 0.00 | 48 | 1016.7 |
| 20260509171505 | 18 | 0 | 3.2 | 9.7 | 0.00 | 0.00 | 0.00 | 46 | 1016.7 |
| 20260509171006 | 18 | 355 | 4.8 | 11.3 | 0.00 | 0.00 | 0.00 | 47 | 1016.6 |
| 20260509170006 | 18 | 353 | 3.2 | 9.7 | 0.00 | 0.00 | 0.00 | 47 | 1016.8 |
| 20260509164506 | 18 | 53 | 6.4 | 11.3 | 0.00 | 0.00 | 0.00 | 48 | 1016.6 |
| 20260509164006 | 18 | 346 | 8.0 | 12.9 | 0.00 | 0.00 | 0.00 | 48 | 1016.7 |
| 20260509163506 | 18 | 346 | 6.4 | 11.3 | 0.00 | 0.00 | 0.00 | 48 | 1016.6 |
| 20260509160005 | 17 | 355 | 8.0 | 11.3 | 0.00 | 0.00 | 0.00 | 46 | 1016.7 |
| 20260509155505 | 18 | 359 | 6.4 | 14.5 | 0.00 | 0.00 | 0.00 | 47 | 1016.6 |
| 20260509155007 | 18 | 348 | 9.7 | 14.5 | 0.00 | 0.00 | 0.00 | 47 | 1016.6 |
| 20260509145505 | 18 | 24 | 9.7 | 14.5 | 0.00 | 0.00 | 0.00 | 47 | 1016.8 |
| 20260509145006 | 18 | 345 | 8.0 | 14.5 | 0.00 | 0.00 | 0.00 | 48 | 1016.8 |
| 20260509144504 | 18 | 6 | 11.3 | 20.9 | 0.00 | 0.00 | 0.00 | 46 | 1016.7 |
| 20260509142505 | 18 | 47 | 4.8 | 11.3 | 0.00 | 0.00 | 0.00 | 46 | 1016.8 |
| 20260509142005 | 18 | 45 | 4.8 | 19.3 | 0.00 | 0.00 | 0.00 | 46 | 1016.8 |
| 20260509140006 | 18 | 17 | 4.8 | 14.5 | 0.00 | 0.00 | 0.00 | 45 | 1017.1 |
| 20260509135505 | 18 | 54 | 6.4 | 14.5 | 0.00 | 0.00 | 0.00 | 46 | 1017.1 |
| 20260509134005 | 17 | 3 | 4.8 | 14.5 | 0.00 | 0.00 | 0.00 | 48 | 1017.3 |
| 20260509133505 | 18 | 3 | 4.8 | 11.3 | 0.00 | 0.00 | 0.00 | 46 | 1017.3 |
| 20260509133005 | 18 | 6 | 8.0 | 12.9 | 0.00 | 0.00 | 0.00 | 47 | 1017.4 |
| 20260509132505 | 17 | 4 | 4.8 | 12.9 | 0.00 | 0.00 | 0.00 | 48 | 1017.4 |
| 20260509132005 | 17 | 3 | 4.8 | 11.3 | 0.00 | 0.00 | 0.00 | 48 | 1017.5 |
| 20260509131505 | 17 | 3 | 8.0 | 16.1 | 0.00 | 0.00 | 0.00 | 48 | 1017.5 |
| 20260509131005 | 17 | 342 | 8.0 | 16.1 | 0.00 | 0.00 | 0.00 | 49 | 1017.6 |